Location: ??????
(41.3164°N, 22.6615°E)
Time: 11:50:15
(UTC+00:00)

CZ-4 R/B - Pass Details

Date: 16 October 2021
Orbit: 531 x 595 km, 97.8° (Epoch: 03 December)

Event Time Altitude Azimuth Distance (km) Brightness Sun altitude
Rises 16:26:12 0° 135° (SE) 2,701 4.5 -8.1°
Reaches altitude 10° 16:28:36 10° 121° (ESE) 1,824 3.5 -8.6°
Maximum altitude 16:31:45 23° 68° (ENE) 1,205 2.5 -9.2°
Drops below altitude 10° 16:34:57 10° 15° (NNE) 1,866 3.8 -9.8°
Sets 16:37:26 0° 1° (N) 2,780 4.9 -10.2°
